Location: Hilton Head Island
(32.2163°N, 80.7526°W)
Time: 16:07:53
(UTC-05:00)

Explorer 11/Cluster Stage 4 - Pass Details

Date: 23 February 2026
Orbit: 463 x 1176 km, 28.8° (Epoch: 6 March)

Event Time Altitude Azimuth Distance (km) Brightness Sun altitude
Rises 09:15:47 0° 223° (SW) 3,782 10.0 26.4°
Reaches altitude 10° 09:19:12 10° 211° (SSW) 2,713 9.5 27.0°
Maximum altitude 09:24:17 24° 160° (SSE) 1,717 9.5 27.9°
Drops below altitude 10° 09:28:42 10° 107° (ESE) 2,313 10.4 28.7°
Sets 09:31:21 0° 93° (E) 3,112 10.5 29.2°
